• In Latvia
  • List of Countries
  • For 7 days
  • Water Temperature
  • Satellite Maps
  • Weather Map
  • Weather Widgets
  • user-avatar
    Login

    Hourly Weather Samos

    Today, 18 February, Sunday

    Time Temperature Precipitation Wind Pressure Humidity
    00:00 +3°C° 0 mm 6 mps 722 mmHg 85%
    01:00 +3°C° 0 mm 6 mps 722 mmHg 85%
    02:00 +2°C° 0 mm 6 mps 722 mmHg 86%
    03:00 +2°C° 0 mm 5 mps 722 mmHg 86%
    04:00 +2°C° 0 mm 5 mps 722 mmHg 85%
    05:00 +2°C° 0 mm 5 mps 722 mmHg 85%
    06:00 +2°C° 0 mm 5 mps 722 mmHg 83%
    07:00 +2°C° 0 mm 5 mps 722 mmHg 80%
    08:00 +3°C° 0 mm 5 mps 722 mmHg 78%
    09:00 +6°C° 0 mm 5 mps 722 mmHg 70%
    10:00 +8°C° 0 mm 4 mps 721 mmHg 61%
    11:00 +11°C° 0 mm 4 mps 721 mmHg 53%
    12:00 +13°C° 0 mm 4 mps 721 mmHg 49%
    13:00 +14°C° 0 mm 4 mps 721 mmHg 45%
    14:00 +15°C° 0 mm 4 mps 721 mmHg 41%
    15:00 +14°C° 0 mm 4 mps 720 mmHg 45%
    16:00 +13°C° 0 mm 4 mps 720 mmHg 49%
    17:00 +13°C° 0 mm 4 mps 720 mmHg 54%
    18:00 +11°C° 0 mm 4 mps 720 mmHg 56%
    19:00 +10°C° 0 mm 4 mps 720 mmHg 58%
    20:00 +7°C° 0 mm 4 mps 720 mmHg 60%
    21:00 +8°C° 0 mm 3 mps 720 mmHg 60%
    22:00 +8°C° 0 mm 3 mps 720 mmHg 60%
    23:00 +7°C° 0 mm 3 mps 720 mmHg 60%

    Tomorrow, 19 February, Monday

    Time Temperature Precipitation Wind Pressure Humidity
    00:00 +7°C° 0 mm 3 mps 719 mmHg 59%
    01:00 +7°C° 0 mm 3 mps 719 mmHg 59%
    02:00 +7°C° 0 mm 3 mps 719 mmHg 59%
    03:00 +7°C° 0 mm 2 mps 719 mmHg 58%
    04:00 +6°C° 0 mm 2 mps 719 mmHg 58%
    05:00 +6°C° 0 mm 2 mps 718 mmHg 58%
    06:00 +7°C° 0 mm 2 mps 718 mmHg 58%
    07:00 +8°C° 0 mm 1 mps 718 mmHg 59%
    08:00 +8°C° 0 mm 1 mps 718 mmHg 60%
    09:00 +10°C° 0 mm 1 mps 719 mmHg 55%
    10:00 +12°C° 0 mm 1 mps 719 mmHg 51%
    11:00 +13°C° 0 mm 1 mps 719 mmHg 47%
    12:00 +14°C° 0 mm 1 mps 719 mmHg 48%
    13:00 +14°C° 0 mm 2 mps 719 mmHg 49%
    14:00 +14°C° 0 mm 2 mps 719 mmHg 50%
    15:00 +13°C° 0 mm 2 mps 718 mmHg 55%
    16:00 +13°C° 0 mm 2 mps 718 mmHg 60%
    17:00 +12°C° 0 mm 2 mps 718 mmHg 65%
    18:00 +10°C° 0 mm 2 mps 719 mmHg 71%
    19:00 +10°C° 0 mm 1 mps 719 mmHg 78%
    20:00 +8°C° 0 mm 1 mps 719 mmHg 84%
    21:00 +8°C° 0 mm 1 mps 719 mmHg 85%
    22:00 +8°C° 0 mm 1 mps 719 mmHg 86%
    23:00 +8°C° 0 mm 1 mps 719 mmHg 87%

    Day after tomorrow, 20 February, Tuesday

    Time Temperature Precipitation Wind Pressure Humidity
    00:00 +8°C° 0 mm 1 mps 719 mmHg 88%
    01:00 +7°C° 0 mm 1 mps 719 mmHg 88%
    02:00 +7°C° 0 mm 1 mps 719 mmHg 89%
    03:00 +7°C° 0 mm 1 mps 719 mmHg 89%
    04:00 +7°C° 0 mm 1 mps 718 mmHg 89%
    05:00 +7°C° 0 mm 1 mps 718 mmHg 90%
    06:00 +7°C° 0.1 mm 1 mps 718 mmHg 88%
    07:00 +7°C° 0.1 mm 2 mps 718 mmHg 86%
    08:00 +7°C° 0.1 mm 2 mps 719 mmHg 84%
    09:00 +8°C° 0.1 mm 2 mps 719 mmHg 80%
    10:00 +9°C° 0.1 mm 2 mps 719 mmHg 75%
    11:00 +12°C° 0.1 mm 2 mps 719 mmHg 71%
    12:00 +12°C° 0.2 mm 2 mps 719 mmHg 69%
    13:00 +12°C° 0.2 mm 2 mps 718 mmHg 67%
    14:00 +13°C° 0.2 mm 2 mps 718 mmHg 66%
    15:00 +12°C° 0.1 mm 2 mps 718 mmHg 70%
    16:00 +12°C° 0.1 mm 2 mps 718 mmHg 74%
    17:00 +10°C° 0.1 mm 2 mps 717 mmHg 79%
    18:00 +9°C° 0.1 mm 2 mps 717 mmHg 81%
    19:00 +8°C° 0.1 mm 2 mps 717 mmHg 84%
    20:00 +8°C° 0.1 mm 2 mps 717 mmHg 86%
    21:00 +7°C° 0.1 mm 2 mps 717 mmHg 86%
    22:00 +7°C° 0.1 mm 3 mps 717 mmHg 86%
    23:00 +7°C° 0.1 mm 3 mps 717 mmHg 86%

    21 February, Wednesday

    Time Temperature Precipitation Wind Pressure Humidity
    00:00 +7°C° 0.1 mm 3 mps 717 mmHg 85%
    01:00 +5°C° 0.1 mm 3 mps 717 mmHg 84%
    02:00 +5°C° 0.1 mm 4 mps 717 mmHg 84%
    03:00 +5°C° 0.1 mm 4 mps 716 mmHg 83%
    04:00 +5°C° 0.1 mm 4 mps 716 mmHg 83%
    05:00 +5°C° 0.1 mm 4 mps 716 mmHg 83%
    06:00 +5°C° 0.1 mm 4 mps 716 mmHg 82%
    07:00 +5°C° 0.1 mm 4 mps 716 mmHg 81%
    08:00 +6°C° 0.1 mm 4 mps 716 mmHg 80%
    09:00 +7°C° 0.2 mm 5 mps 716 mmHg 77%
    10:00 +8°C° 0.2 mm 5 mps 716 mmHg 75%
    11:00 +9°C° 0.2 mm 5 mps 716 mmHg 72%
    12:00 +8°C° 0.7 mm 5 mps 715 mmHg 77%
    13:00 +8°C° 0.7 mm 5 mps 715 mmHg 82%
    14:00 +7°C° 0.7 mm 6 mps 714 mmHg 87%
    15:00 +7°C° 0.6 mm 6 mps 714 mmHg 88%
    16:00 +7°C° 0.6 mm 6 mps 714 mmHg 89%
    17:00 +7°C° 0.6 mm 5 mps 714 mmHg 90%
    18:00 +7°C° 0.9 mm 5 mps 714 mmHg 90%
    19:00 +6°C° 0.9 mm 5 mps 714 mmHg 90%
    20:00 +6°C° 0.9 mm 5 mps 714 mmHg 91%
    21:00 +6°C° 0.7 mm 5 mps 714 mmHg 91%
    22:00 +6°C° 0.7 mm 5 mps 714 mmHg 91%
    23:00 +5°C° 0.7 mm 6 mps 714 mmHg 91%

    22 February, Thursday

    Time Temperature Precipitation Wind Pressure Humidity
    00:00 +5°C° 0.4 mm 6 mps 714 mmHg 91%
    01:00 +5°C° 0.4 mm 6 mps 714 mmHg 92%
    02:00 +5°C° 0.4 mm 6 mps 714 mmHg 92%
    03:00 +5°C° 0.3 mm 6 mps 713 mmHg 92%
    04:00 +5°C° 0.3 mm 6 mps 713 mmHg 91%
    05:00 +6°C° 0.3 mm 5 mps 713 mmHg 91%
    06:00 +5°C° 0.3 mm 6 mps 713 mmHg 90%
    07:00 +5°C° 0.3 mm 6 mps 713 mmHg 89%
    08:00 +7°C° 0.3 mm 6 mps 713 mmHg 88%
    09:00 +8°C° 0.3 mm 6 mps 713 mmHg 83%
    10:00 +9°C° 0.3 mm 6 mps 713 mmHg 79%
    11:00 +11°C° 0.3 mm 6 mps 713 mmHg 74%
    12:00 +12°C° 0.3 mm 5 mps 713 mmHg 73%
    13:00 +13°C° 0.3 mm 5 mps 713 mmHg 72%
    14:00 +13°C° 0.3 mm 5 mps 713 mmHg 71%
    15:00 +12°C° 0.4 mm 4 mps 713 mmHg 75%
    16:00 +12°C° 0.4 mm 4 mps 713 mmHg 78%
    17:00 +11°C° 0.4 mm 3 mps 713 mmHg 82%
    18:00 +11°C° 0.3 mm 3 mps 713 mmHg 86%
    19:00 +10°C° 0.3 mm 3 mps 713 mmHg 89%
    20:00 +9°C° 0.3 mm 2 mps 713 mmHg 93%
    21:00 +9°C° 0.1 mm 2 mps 713 mmHg 93%
    22:00 +9°C° 0.1 mm 2 mps 713 mmHg 93%
    23:00 +9°C° 0.1 mm 2 mps 713 mmHg 93%

    23 February, Friday

    Time Temperature Precipitation Wind Pressure Humidity
    00:00 +8°C° 0.1 mm 2 mps 713 mmHg 93%
    01:00 +8°C° 0.1 mm 2 mps 713 mmHg 92%
    02:00 +8°C° 0.1 mm 2 mps 713 mmHg 92%
    03:00 +8°C° 0.2 mm 2 mps 713 mmHg 92%
    04:00 +8°C° 0.2 mm 2 mps 713 mmHg 92%
    05:00 +8°C° 0.2 mm 2 mps 713 mmHg 92%
    06:00 +8°C° 0.1 mm 3 mps 713 mmHg 91%
    07:00 +8°C° 0.1 mm 3 mps 714 mmHg 91%
    08:00 +8°C° 0.1 mm 3 mps 714 mmHg 90%
    09:00 +10°C° 0 mm 3 mps 714 mmHg 85%
    10:00 +11°C° 0 mm 4 mps 714 mmHg 81%
    11:00 +12°C° 0 mm 4 mps 715 mmHg 76%
    12:00 +13°C° 0 mm 4 mps 715 mmHg 72%
    13:00 +13°C° 0 mm 5 mps 715 mmHg 68%
    14:00 +14°C° 0 mm 5 mps 715 mmHg 65%
    15:00 +13°C° 0 mm 5 mps 715 mmHg 68%
    16:00 +13°C° 0 mm 5 mps 715 mmHg 72%
    17:00 +12°C° 0 mm 5 mps 715 mmHg 75%
    18:00 +10°C° 0 mm 6 mps 715 mmHg 81%
    19:00 +9°C° 0 mm 7 mps 715 mmHg 86%
    20:00 +7°C° 0 mm 8 mps 715 mmHg 91%
    21:00 +6°C° 0.1 mm 8 mps 715 mmHg 91%
    22:00 +6°C° 0.1 mm 8 mps 715 mmHg 91%
    23:00 +6°C° 0.1 mm 9 mps 715 mmHg 90%
    Show more